Location: Calberlah
(52.4230°N, 10.6240°E)
Time: 01:59:38
(UTC+00:00)

Meteor 2-13 Rocket - Pass Details

Date: 19 May 2025
Orbit: 934 x 958 km, 82.5° (Epoch: 23 June)

Event Time Altitude Azimuth Distance (km) Brightness Sun altitude
Exits shadow 22:19:04 24° 186° (S) 1,880 5.4 -16.6°
Maximum altitude 22:23:01 85° 100° (E) 965 4.4 -16.8°
Drops below altitude 10° 22:29:11 10° 12° (NNE) 2,687 7.9 -16.9°
Sets 22:31:41 0° 12° (NNE) 3,633 8.8 -17.0°
